sat.trackr.live / text

‹ back to catalog

STARLINK-35750

NORAD 66209 · 2025-244D

PAYLOAD ACTIVE UNKNOWN

§ Identity

Operator
Country
US
Launch date
2025-10-28
Launch site
AFWTR
Launch vehicle
Mass (kg)
RCS (m²)

Purposes: comms

External: N2YO · Heavens-Above · Gunter

§ Orbital elements

Epoch: 2026-05-24T23:30:57.622176Z

Period
94.10 min
Inclination
53.1587°
Eccentricity
0.0000888
Mean motion
15.30208588 rev/d
Perigee alt
474.6 km
Apogee alt
475.8 km
Semi-major
6,853.3 km
B*
4.6991e-4
RAAN
235.2868°
Arg perigee
80.3977°
Mean anomaly
279.7124°
Rev number
3,334

§ Raw data

STARLINK-357501 66209U 25244D   26144.97983359  .00013587  00000+0  46991-3 0  99952 66209  53.1587 235.2868 0000888  80.3977 279.7124 15.30208588 33341

JSON: /api/v1/satellites/66209 · /tle

For live sub-satellite position, see the globe view (requires WebGL).

§ Visibility from observer

Set your observer location to see the next 7 days of passes ≥ 10°. The values pass through the URL so the page stays shareable.

No JS? Fill the form by hand. The geolocation button needs JavaScript.